Regional Weather Roundup
Issued by NWS Northern Indiana

Home | Current Version | Previous Version | Graphics & Text | Print | Product List | Glossary On
Versions: 1 2 3 4 5 6 7 8 9 10 11 12 13 14 15 16 17 18 19 20 21 22 23 24 25 26 27 28 29 30 31 32 33 34 35 36 37 38 39 40 41 42 43 44 45 46 47 48 49 50
000
ASUS43 KIWX 211710
RWRIWX

KIWX WEATHER ROUNDUP
NATIONAL WEATHER SERVICE NORTHERN INDIANA
1200 PM EST SAT JAN 21 2017

NOTE: "FAIR" INDICATES FEW OR NO CLOUDS BELOW 12,000 FEET WITH NO
SIGNIFICANT WEATHER AND/OR OBSTRUCTIONS TO VISIBILITY.

* THESE STATIONS ARE NOT UNDER NWS QUALITY CONTROL. THEY ALSO MAY NOT
  REPORT WEATHER SUCH AS PRECIPITATION OR FOG.

INZ001>027-211800-
NORTHERN INDIANA

CITY           SKY/WX    TMP DP  RH WIND       PRES   REMARKS
GARY*          MOSUNNY   57  48  72 S9        29.54F
VALPARAISO     SUNNY     57  51  80 S13       29.56F
LAPORTE*       SUNNY     54  50  85 S9G16     29.56F
KNOX*          SUNNY     55  34  44 S14G20    29.57F
SOUTH BEND     SUNNY     56  50  80 S9        29.59F
ELKHART*       SUNNY     55  50  82 S12       29.58F
GOSHEN         SUNNY     57  49  74 S12       29.59F
ROCHESTER*     SUNNY     57  52  82 S7        29.60F
WARSAW*        SUNNY     54  46  76 S8        29.61S
FORT WAYNE     PTSUNNY   57  51  80 S14       29.63F
PERU/GRISSOM   CLOUDY    57  55  93 S13       29.59F
MARION*        CLOUDY    55  52  88 S13       29.63F

$$
INZ028>050-211800-
CENTRAL INDIANA

CITY           SKY/WX    TMP DP  RH WIND       PRES   REMARKS
LAFAYETTE      MOSUNNY   57  52  83 S5        29.58F
KOKOMO*        MOSUNNY   56  52  86 S12       29.62F
MUNCIE*        CLOUDY    58  51  78 S12       29.64F
INDIANAPOLIS   PTSUNNY   58  51  78 S14       29.64R

$$
MIZ043>046-050>051-056>058-064>065-071>073-077>080-211800-
SOUTHWEST LOWER MICHIGAN

CITY           SKY/WX    TMP DP  RH WIND       PRES   REMARKS
BATTLE CREEK   SUNNY     56  52  86 S10       29.60
BENTON HARBOR  MOSUNNY   55  49  80 SE9       29.56F
COLDWATER*     CLOUDY    52  52 100 S10       29.61F FOG
HILLSDALE*     FOG       48  46  93 S9        29.62F VSB 1
HOLLAND        SUNNY     55  51  86 SE15      29.55F
GRAND RAPIDS   CLOUDY    51  49  92 SE8       29.58F FOG
KALAMAZOO      PTSUNNY   55  49  80 SE9       29.59F HAZE
STURGIS*       MOSUNNY   55  51  86 SE7       29.59F
THREE RIVERS*  FAIR      55  51  86 S10       29.59F

$$
OHZ001>008-015>018-024>025-211800-
NORTHWEST OHIO

CITY           SKY/WX    TMP DP  RH WIND       PRES   REMARKS
DEFIANCE       CLOUDY    54  49  83 S8        29.65F
FINDLAY        PTSUNNY   58  51  78 S9        29.66F
TOLEDO EXPRESS SUNNY     56  52  86 S8        29.65F
TOLEDO METCALF SUNNY     57  52  83 S9        29.66F
LIMA           CLOUDY    56  53  90 S7        29.67F

$$
AND FOR LAKE MICHIGAN COASTAL AND OPEN LAKE BUOY OBSERVATIONS

STATION/POSITION TEMP    WIND        PRES    VSBY  WAVE
                 AIR SEA DIR/SP/G                  HT/PER
                 (F)     (DEG/KT/KT) (MB)    (MI)  (FT/S)
CALUMET HARBOR    54     180/ 12/ 16  999.3F
MICHIGAN CITY     54     150/ 12/ 15   N/A
BURNS HARBOR      54     180/ 14/ 19 1001.4F

$$
&&



USA.gov is the U.S. government's official web portal to all federal, state and local government web resources and services.